Weather History for Defiance, OH

Change the Weather History Date:

Saturday, March 3, 2012

  Actual Average Record
Temperature  
Mean Temperature 34 °F -  
Max Temperature 37 °F 42 °F 67 °F (1946)
Min Temperature 30 °F 22 °F -6 °F (1978)
Degree Days  
Heating Degree Days 32    
Moisture  
Dew Point 24 °F    
Average Humidity 67    
Maximum Humidity 75    
Minimum Humidity 57    
Precipitation  
Precipitation 0.00 in - - ()
Sea Level Pressure  
Sea Level Pressure 29.69 in    
Wind  
Wind Speed 13 mph (WSW)    
Max Wind Speed 16 mph    
Max Gust Speed 33 mph    
Visibility 9 miles    
Events Snow    
Averages and records for this station are not official NWS values.
T = Trace of Precipitation, MM = Missing Value Source: NWS Daily Summary

Daily Weather History Graph

Daily Weather History Graph

Search for Another Location

Airport:

Trip Planner

Search our weather history database for the weather conditions in past years. The results will help you decide how hot, cold, wet, or windy it might be!

Date:

Astronomy

Mar. 03, 2012 Rise Set
Actual Time 7:08 AM EST 6:31 PM EST
Civil Twilight 6:40 AM EST 6:59 PM EST
Nautical Twilight 6:08 AM EST 7:31 PM EST
Astronomical Twilight 5:36 AM EST 8:03 PM EST
Moon 1:37 PM EST (3/3) 3:47 AM EST (3/3)
Length of Visible Light 12h 18m
Length of Day
11h 23m
Waxing Gibbous, 75% of the Moon is Illuminated
Mar 3
Waxing Gibbous
Mar 8
Full
Mar 14
Last Quarter
Mar 22
New
Mar 30
First Quarter

Hourly Weather History & Observations

Time (EST) Temp. Windchill Dew Point Humidity Pressure Visibility Wind Dir Wind Speed Gust Speed Precip Events Conditions
12:53 AM 37.0 °F 28.5 °F 28.0 °F 70% 29.49 in 10.0 mi West 13.8 mph 28.8 mph N/A   Overcast
1:53 AM 37.0 °F 28.1 °F 28.9 °F 73% 29.51 in 10.0 mi West 15.0 mph 28.8 mph N/A   Overcast
2:53 AM 37.0 °F 28.9 °F 28.0 °F 70% 29.53 in 10.0 mi West 12.7 mph 27.6 mph N/A   Overcast
3:53 AM 36.0 °F 26.3 °F 28.0 °F 73% 29.55 in 10.0 mi West 16.1 mph 27.6 mph N/A   Overcast
4:53 AM 36.0 °F 26.3 °F 26.1 °F 67% 29.57 in 10.0 mi WSW 16.1 mph 29.9 mph N/A   Overcast
5:31 AM 35.6 °F 27.1 °F 26.6 °F 70% 29.57 in 10.0 mi WSW 12.7 mph 21.9 mph N/A   Overcast
5:53 AM 35.1 °F 26.9 °F 26.1 °F 70% 29.60 in 10.0 mi West 11.5 mph 21.9 mph N/A   Overcast
6:18 AM 35.6 °F 27.1 °F 24.8 °F 65% 29.59 in 10.0 mi WSW 12.7 mph 21.9 mph N/A   Overcast
7:53 AM 34.0 °F 23.8 °F 23.0 °F 64% 29.64 in 10.0 mi WSW 16.1 mph 28.8 mph N/A   Overcast
8:12 AM 33.8 °F 24.8 °F 23.0 °F 65% 29.64 in 10.0 mi WSW 12.7 mph 26.5 mph N/A   Overcast
8:53 AM 33.1 °F 23.9 °F 23.0 °F 66% 29.67 in 10.0 mi WSW 12.7 mph 21.9 mph N/A   Overcast
9:06 AM 33.8 °F 25.3 °F 23.0 °F 65% 29.66 in 10.0 mi WSW 11.5 mph 24.2 mph N/A   Overcast
9:43 AM 33.8 °F 25.8 °F 24.8 °F 70% 29.67 in 10.0 mi WSW 10.4 mph 23.0 mph N/A   Overcast
9:50 AM 33.8 °F 24.8 °F 24.8 °F 70% 29.67 in 10.0 mi WSW 12.7 mph 24.2 mph N/A   Overcast
9:53 AM 33.1 °F 23.9 °F 23.0 °F 66% 29.69 in 10.0 mi WSW 12.7 mph 24.2 mph N/A   Overcast
10:53 AM 35.1 °F 25.2 °F 24.1 °F 64% 29.70 in 10.0 mi WSW 16.1 mph 29.9 mph N/A   Overcast
11:53 AM 35.1 °F 25.5 °F 24.1 °F 64% 29.72 in 10.0 mi WSW 15.0 mph 28.8 mph N/A   Overcast
12:39 PM 33.8 °F 24.8 °F 24.8 °F 70% 29.71 in 2.0 mi WSW 12.7 mph 25.3 mph 0.00 in Snow Light Snow
12:46 PM 33.8 °F 24.3 °F 26.6 °F 75% 29.70 in 3.0 mi WSW 13.8 mph 24.2 mph 0.00 in Snow Light Snow
12:53 PM 35.1 °F 25.2 °F 26.1 °F 70% 29.73 in 8.0 mi WSW 16.1 mph 24.2 mph 0.00 in Snow Light Snow
1:53 PM 36.0 °F 26.3 °F 21.9 °F 57% 29.72 in 10.0 mi WSW 16.1 mph 33.4 mph 0.00 in   Overcast
2:53 PM 35.1 °F 25.9 °F 23.0 °F 61% 29.72 in 10.0 mi WSW 13.8 mph 25.3 mph N/A   Overcast
3:53 PM 35.1 °F 27.9 °F 23.0 °F 61% 29.72 in 10.0 mi WSW 9.2 mph 26.5 mph N/A   Overcast
4:53 PM 35.1 °F 27.9 °F 23.0 °F 61% 29.73 in 10.0 mi West 9.2 mph 26.5 mph N/A   Overcast
5:53 PM 34.0 °F 25.0 °F 23.0 °F 64% 29.76 in 10.0 mi WSW 12.7 mph 23.0 mph N/A   Overcast
6:53 PM 33.1 °F 25.5 °F 25.0 °F 72% 29.79 in 7.0 mi West 9.2 mph 24.2 mph 0.00 in Snow Light Snow
7:53 PM 32.0 °F 24.2 °F 25.0 °F 75% 29.80 in 10.0 mi WSW 9.2 mph 17.3 mph 0.00 in   Overcast
8:53 PM 32.0 °F 25.6 °F 21.9 °F 66% 29.81 in 9.0 mi West 6.9 mph 17.3 mph 0.00 in   Mostly Cloudy
9:53 PM 30.9 °F 23.5 °F 21.0 °F 67% 29.81 in 10.0 mi West 8.1 mph - N/A   Overcast
10:53 PM 32.0 °F 26.4 °F 21.0 °F 64% 29.81 in 10.0 mi Variable 5.8 mph - N/A   Overcast
11:16 PM 32.0 °F 25.6 °F 21.2 °F 64% 29.79 in 10.0 mi West 6.9 mph 17.3 mph N/A   Overcast
11:24 PM 32.0 °F 24.2 °F 21.2 °F 64% 29.79 in 10.0 mi WSW 9.2 mph - N/A   Overcast
11:53 PM 30.9 °F 23.5 °F 23.0 °F 72% 29.81 in 10.0 mi WSW 8.1 mph - N/A   Overcast